FW6098 Weather Reports


Display with metric or nautical units.
time (UTC)temp
F
wind
direction
speed
MPH
gust
MPH
rain 1hr
in
rain 24hr
in
rain mn
in
humidity
%
barometer
mb
20210927183009 85 226 3.0 17.0 0.00 0.00 0.00 57 1013.5
20210927182508 84 149 6.0 17.0 0.00 0.00 0.00 58 1013.6
20210927182009 83 100 1.0 8.0 0.00 0.00 0.00 60 1013.7
20210927181508 84 117 3.0 9.0 0.00 0.00 0.00 59 1014.0
20210927181009 84 160 2.0 8.0 0.00 0.00 0.00 59 1014.1
20210927180522 84 144 2.0 8.0 0.00 0.00 0.00 60 1014.1
20210927180005 84 242 1.0 10.0 0.00 0.00 0.00 59 1014.2
20210927175510 83 159 5.0 10.0 0.00 0.00 0.00 59 1014.3
20210927175003 83 202 5.0 9.0 0.00 0.00 0.00 60 1014.5
20210927174741 82 153 5.0 10.0 0.00 0.00 0.00 63 1014.5
20210927174111 83 360 2.0 10.0 0.00 0.00 0.00 61 1014.6
20210927173600 82 167 4.0 10.0 0.00 0.00 0.00 63 1014.8
20210927173234 82 138 3.0 9.0 0.00 0.00 0.00 64 1014.8
20210927172558 82 229 5.0 8.0 0.00 0.00 0.00 64 1014.8
20210927172058 82 277 1.0 7.0 0.00 0.00 0.00 64 1014.9
20210927171632 82 239 3.0 9.0 0.00 0.00 0.00 66 1015.0
20210927171057 82 213 2.0 9.0 0.00 0.00 0.00 64 1015.2
20210927170559 82 242 0.0 5.0 0.00 0.00 0.00 68 1015.2
20210927170111 80 360 1.0 10.0 0.00 0.00 0.00 70 1015.2
20210927165553 80 360 5.0 10.0 0.00 0.00 0.00 70 1015.3
20210927165103 80 360 3.0 10.0 0.00 0.00 0.00 70 1015.4
20210927164604 80 360 4.0 9.0 0.00 0.00 0.00 69 1015.5
20210927164051 79 360 2.0 9.0 0.00 0.00 0.00 72 1015.5
20210927163554 79 360 4.0 11.0 0.00 0.00 0.00 72 1015.5
20210927163155 78 360 4.0 11.0 0.00 0.00 0.00 73 1015.5
20210927162622 78 360 3.0 11.0 0.00 0.00 0.00 75 1015.5
20210927162049 78 360 6.0 11.0 0.00 0.00 0.00 74 1015.6
20210927161628 78 360 5.0 10.0 0.00 0.00 0.00 74 1015.6
20210927161056 78 220 3.0 11.0 0.00 0.00 0.00 75 1015.8
20210927160546 78 360 3.0 8.0 0.00 0.00 0.00 76 1015.7
20210927160125 77 360 2.0 10.0 0.00 0.00 0.00 78 1015.7
20210927155543 76 360 1.0 10.0 0.00 0.00 0.00 80 1015.7
20210927155044 75 360 6.0 11.0 0.00 0.00 0.00 81 1015.8
20210927154657 75 360 5.0 11.0 0.00 0.00 0.00 81 1015.7
20210927153548 75 360 2.0 5.0 0.00 0.00 0.00 81 1015.8
20210927153112 75 360 2.0 5.0 0.00 0.00 0.00 80 1015.8
20210927152626 75 360 0.0 3.0 0.00 0.00 0.00 80 1015.8
20210927152039 75 360 0.0 5.0 0.00 0.00 0.00 81 1015.8
20210927151615 74 360 1.0 5.0 0.00 0.00 0.00 82 1015.9
20210927151045 74 360 1.0 6.0 0.00 0.00 0.00 83 1015.8
20210927150539 73 360 4.0 9.0 0.00 0.00 0.00 84 1015.8
20210927150223 73 360 3.0 9.0 0.00 0.00 0.00 84 1015.7
20210927145539 73 360 2.0 5.0 0.00 0.00 0.00 84 1015.7
20210927145041 72 360 2.0 6.0 0.00 0.00 0.00 84 1015.6
20210927143533 72 360 0.0 4.0 0.00 0.00 0.00 83 1015.4
20210927143122 72 360 2.0 4.0 0.00 0.00 0.00 83 1015.4
20210927142532 72 360 0.0 3.0 0.00 0.00 0.00 83 1015.4
20210927142030 72 360 2.0 3.0 0.00 0.00 0.00 84 1015.3
20210927141547 72 360 0.0 3.0 0.00 0.00 0.00 84 1015.3
20210927141036 71 360 1.0 3.0 0.00 0.00 0.00 85 1015.2
20210927140528 71 360 0.0 3.0 0.00 0.00 0.00 85 1015.1
20210927140100 71 360 0.0 3.0 0.00 0.00 0.00 85 1015.0
20210927135533 71 360 1.0 3.0 0.00 0.00 0.00 85 1015.0
20210927135027 71 360 0.0 3.0 0.00 0.00 0.00 85 1014.9
20210927134625 71 360 1.0 3.0 0.00 0.00 0.00 85 1014.9
20210927134030 71 360 0.0 2.0 0.00 0.00 0.00 86 1014.9
20210927133532 70 360 1.0 3.0 0.00 0.00 0.00 85 1014.7
20210927133058 70 360 2.0 3.0 0.00 0.00 0.00 85 1014.6
20210927132533 70 360 1.0 5.0 0.00 0.00 0.00 86 1014.7
20210927132031 70 360 2.0 5.0 0.00 0.00 0.00 86 1014.7
20210927131524 69 360 3.0 4.0 0.00 0.00 0.00 86 1014.5
20210927131037 69 360 3.0 4.0 0.00 0.00 0.00 86 1014.4
20210927130519 69 360 2.0 4.0 0.00 0.00 0.00 86 1014.4
20210927130056 69 360 2.0 4.0 0.00 0.00 0.00 86 1014.4
20210927125517 69 360 2.0 3.0 0.00 0.00 0.00 86 1014.5
20210927125038 69 360 2.0 3.0 0.00 0.00 0.00 87 1014.5
20210927124544 69 360 2.0 4.0 0.00 0.00 0.00 87 1014.5
20210927124017 69 360 1.0 3.0 0.00 0.00 0.00 87 1014.4
20210927123535 69 360 2.0 3.0 0.00 0.00 0.00 87 1014.4
20210927123036 69 360 0.0 1.0 0.00 0.00 0.00 87 1014.2
20210927122515 69 360 0.0 2.0 0.00 0.00 0.00 87 1014.3
20210927122014 69 360 1.0 3.0 0.00 0.00 0.00 87 1014.2
20210927121544 69 360 1.0 3.0 0.00 0.00 0.00 87 1014.4
20210927121022 69 360 1.0 3.0 0.00 0.00 0.00 87 1014.4
20210927120517 69 360 1.0 3.0 0.00 0.00 0.00 88 1014.3
20210927120036 69 360 2.0 4.0 0.00 0.00 0.00 87 1014.2
20210927115521 69 360 2.0 4.0 0.00 0.00 0.00 88 1014.2
20210927115015 69 360 1.0 3.0 0.00 0.00 0.00 88 1014.2
20210927114526 69 360 0.0 2.0 0.00 0.00 0.00 88 1014.2
20210927114014 69 360 0.0 3.0 0.00 0.00 0.00 88 1014.2
20210927113513 69 360 1.0 3.0 0.00 0.00 0.00 88 1014.2
20210927113013 69 360 0.0 2.0 0.00 0.00 0.00 88 1014.1
20210927112514 69 360 0.0 2.0 0.00 0.00 0.00 88 1014.2
20210927112013 69 360 1.0 4.0 0.00 0.00 0.00 88 1014.1
20210927111516 69 360 2.0 4.0 0.00 0.00 0.00 88 1014.1
20210927111012 69 360 2.0 3.0 0.00 0.00 0.00 88 1014.1
20210927110512 69 360 1.0 3.0 0.00 0.00 0.00 87 1014.1
20210927110045 69 360 0.0 4.0 0.00 0.00 0.00 87 1014.1
20210927105511 69 360 2.0 4.0 0.00 0.00 0.00 87 1014.1
20210927105030 69 360 0.0 1.0 0.00 0.00 0.00 87 1014.1
20210927104520 69 360 0.0 2.0 0.00 0.00 0.00 87 1014.1
20210927104016 69 360 0.0 4.0 0.00 0.00 0.00 87 1014.0
20210927093055 69 360 5.0 10.0 0.00 0.00 0.00 86 1014.0
20210927092517 69 360 5.0 8.0 0.00 0.00 0.00 86 1014.1
20210927092008 69 360 2.0 6.0 0.00 0.00 0.00 86 1014.2
20210927091531 70 360 1.0 8.0 0.00 0.00 0.00 85 1014.2
20210927091008 69 360 5.0 8.0 0.00 0.00 0.00 86 1014.2
20210927090507 70 360 2.0 5.0 0.00 0.00 0.00 86 1014.3
20210927090008 70 360 3.0 5.0 0.00 0.00 0.00 85 1014.4
20210927085509 70 360 1.0 4.0 0.00 0.00 0.00 85 1014.4
20210927085003 70 360 2.0 6.0 0.00 0.00 0.00 85 1014.5
20210927083006 70 360 3.0 8.0 0.00 0.00 0.00 85 1014.7
20210927082502 70 360 4.0 10.0 0.00 0.00 0.00 84 1014.6
20210927082005 70 360 5.0 10.0 0.00 0.00 0.00 84 1014.6
20210927081503 70 360 4.0 10.0 0.00 0.00 0.00 84 1014.7
20210927081100 70 360 3.0 10.0 0.00 0.00 0.00 84 1014.8
20210927080601 70 360 4.0 10.0 0.00 0.00 0.00 84 1014.9
20210927080123 70 360 5.0 10.0 0.00 0.00 0.00 84 1014.8
20210927075601 70 360 5.0 11.0 0.00 0.00 0.00 84 1014.8
20210927075107 70 360 5.0 11.0 0.00 0.00 0.00 84 1014.9
20210927074637 70 360 4.0 8.0 0.00 0.00 0.00 84 1015.0
20210927074057 70 360 5.0 10.0 0.00 0.00 0.00 83 1014.9
20210927073603 70 360 4.0 10.0 0.00 0.00 0.00 83 1015.0
20210927073207 70 360 3.0 9.0 0.00 0.00 0.00 83 1014.9
20210927072557 70 360 3.0 9.0 0.00 0.00 0.00 83 1015.0
20210927072057 70 360 4.0 11.0 0.00 0.00 0.00 82 1015.0
20210927071646 70 360 4.0 11.0 0.00 0.00 0.00 83 1014.9
20210927071055 70 360 3.0 10.0 0.00 0.00 0.00 82 1014.9
20210927070555 70 360 3.0 10.0 0.00 0.00 0.00 82 1014.9
20210927070105 70 360 3.0 8.0 0.00 0.00 0.00 82 1014.8
20210927065558 71 360 3.0 10.0 0.00 0.00 0.00 82 1014.9
20210927065100 70 360 4.0 10.0 0.00 0.00 0.00 82 1014.9
20210927064710 71 360 4.0 8.0 0.00 0.00 0.00 81 1014.9
20210927064103 71 360 3.0 11.0 0.00 0.00 0.00 81 1015.0
20210927063604 71 360 6.0 11.0 0.00 0.00 0.00 81 1014.9
20210927063115 71 360 4.0 14.0 0.00 0.00 0.00 81 1014.9
20210927062549 71 360 4.0 14.0 0.00 0.00 0.00 81 1015.0
20210927062111 71 360 5.0 14.0 0.00 0.00 0.00 80 1015.0
20210927061649 71 360 5.0 16.0 0.00 0.00 0.00 80 1015.0
20210927061057 71 360 7.0 16.0 0.00 0.00 0.00 80 1015.0
20210927060547 71 360 4.0 16.0 0.00 0.00 0.00 80 1015.1
20210927060115 71 360 8.0 17.0 0.00 0.00 0.00 80 1015.0
20210927055545 71 360 7.0 17.0 0.00 0.00 0.00 79 1014.9
20210927055052 72 360 6.0 11.0 0.00 0.00 0.00 78 1015.0
20210927054603 72 360 5.0 11.0 0.00 0.00 0.00 78 1015.0
20210927054043 72 360 6.0 13.0 0.00 0.00 0.00 78 1015.0
20210927053553 72 360 5.0 10.0 0.00 0.00 0.00 77 1015.1
20210927053129 72 360 3.0 10.0 0.00 0.00 0.00 77 1015.1
20210927052540 72 360 3.0 11.0 0.00 0.00 0.00 77 1015.0
20210927052040 72 360 4.0 12.0 0.00 0.00 0.00 76 1014.9
20210927051631 72 360 8.0 13.0 0.00 0.00 0.00 76 1015.0
20210927051051 72 360 8.0 17.0 0.00 0.00 0.00 76 1015.0
20210927050537 72 360 4.0 13.0 0.00 0.00 0.00 76 1014.9
20210927050130 72 360 5.0 13.0 0.00 0.00 0.00 76 1014.8
20210927045538 73 360 8.0 13.0 0.00 0.00 0.00 75 1014.9
20210927045041 73 360 8.0 15.0 0.00 0.00 0.00 75 1014.9
20210927044548 73 360 8.0 15.0 0.00 0.00 0.00 74 1014.9
20210927044042 73 360 9.0 15.0 0.00 0.00 0.00 74 1014.9
20210927043555 73 360 9.0 17.0 0.00 0.00 0.00 74 1014.9
20210927043101 73 360 7.0 16.0 0.00 0.00 0.00 73 1014.9
20210927042534 73 360 10.0 16.0 0.00 0.00 0.00 73 1014.9
20210927042040 74 360 7.0 18.0 0.00 0.00 0.00 72 1014.9
20210927041537 74 360 13.0 18.0 0.00 0.00 0.00 72 1015.0
20210927041034 74 360 8.0 16.0 0.00 0.00 0.00 71 1014.9
20210927040538 74 360 10.0 17.0 0.00 0.00 0.00 70 1014.9
20210927040048 75 360 8.0 16.0 0.00 0.00 0.00 69 1014.7
20210927035533 75 360 6.0 16.0 0.00 0.00 0.00 69 1014.9
20210927035032 75 360 10.0 15.0 0.00 0.00 0.00 68 1014.8
20210927034601 75 360 5.0 15.0 0.00 0.00 0.00 67 1014.6
20210927034032 75 360 6.0 19.0 0.00 0.00 0.00 66 1014.6
20210927033532 76 360 12.0 19.0 0.00 0.00 0.00 66 1014.5
20210927032530 76 360 10.0 17.0 0.00 0.00 0.00 63 1014.4
20210927032031 76 360 10.0 17.0 0.00 0.00 0.00 61 1014.4
20210927031558 77 360 7.0 14.0 0.00 0.00 0.00 58 1014.6
20210927031030 77 360 8.0 14.0 0.00 0.00 0.00 54 1014.5
20210927030530 78 360 9.0 15.0 0.00 0.00 0.00 51 1014.5
20210927030034 78 360 8.0 16.0 0.00 0.00 0.00 48 1014.4
20210927025530 79 360 8.0 14.0 0.00 0.00 0.00 44 1014.2
20210927025029 79 360 5.0 8.0 0.00 0.00 0.00 43 1014.0
20210927024541 79 360 4.0 10.0 0.00 0.00 0.00 42 1014.0
20210927022529 80 360 4.0 8.0 0.00 0.00 0.00 41 1014.0
20210927022031 80 360 4.0 8.0 0.00 0.00 0.00 41 1014.0
20210927021604 80 360 3.0 10.0 0.00 0.00 0.00 41 1013.9
20210927021102 80 360 2.0 10.0 0.00 0.00 0.00 40 1013.7
20210927020528 80 360 4.0 8.0 0.00 0.00 0.00 40 1013.7
20210927020141 80 360 4.0 8.0 0.00 0.00 0.00 40 1013.6
20210927015527 81 360 4.0 8.0 0.00 0.00 0.00 40 1013.6
20210927015058 81 360 4.0 8.0 0.00 0.00 0.00 40 1013.5
20210927014556 81 360 5.0 8.0 0.00 0.00 0.00 40 1013.5
20210927014027 81 360 5.0 8.0 0.00 0.00 0.00 39 1013.5
20210927013527 81 360 4.0 8.0 0.00 0.00 0.00 39 1013.5
20210927012531 81 360 3.0 8.0 0.00 0.00 0.00 38 1013.5
20210927012026 81 360 4.0 8.0 0.00 0.00 0.00 38 1013.4
20210927011537 81 360 4.0 8.0 0.00 0.00 0.00 38 1013.4
20210927011037 82 360 4.0 8.0 0.00 0.00 0.00 38 1013.4
20210927010525 82 360 4.0 8.0 0.00 0.00 0.00 38 1013.5
20210927010029 82 360 4.0 8.0 0.00 0.00 0.00 37 1013.4
20210927005524 82 360 2.0 6.0 0.00 0.00 0.00 37 1013.5
20210927005041 82 360 3.0 6.0 0.00 0.00 0.00 37 1013.5
20210927004626 82 360 4.0 6.0 0.00 0.00 0.00 37 1013.5
20210927004024 82 360 3.0 5.0 0.00 0.00 0.00 36 1013.5
20210927003536 82 360 3.0 8.0 0.00 0.00 0.00 36 1013.4
20210927003043 82 360 4.0 8.0 0.00 0.00 0.00 36 1013.5
20210927002541 83 360 4.0 8.0 0.00 0.00 0.00 36 1013.4
20210927002027 83 360 4.0 10.0 0.00 0.00 0.00 35 1013.4
20210927001602 83 360 4.0 11.0 0.00 0.00 0.00 35 1013.3
20210927001023 83 360 5.0 11.0 0.00 0.00 0.00 34 1013.3
20210927000535 83 360 4.0 10.0 0.00 0.00 0.00 34 1013.3
20210927000039 84 360 4.0 11.0 0.00 0.00 0.00 34 1013.2
20210926235526 84 360 5.0 12.0 0.00 0.00 0.00 33 1013.3
20210926235022 84 168 6.0 12.0 0.00 0.00 0.00 32 1013.2
20210926234525 85 142 3.0 10.0 0.00 0.00 0.00 33 1013.2
20210926234022 85 162 6.0 14.0 0.00 0.00 0.00 32 1013.3
20210926233532 85 228 5.0 14.0 0.00 0.00 0.00 32 1013.3
20210926233059 85 238 4.0 11.0 0.00 0.00 0.00 33 1013.3
20210926232526 85 178 5.0 11.0 0.00 0.00 0.00 33 1013.3
20210926232020 85 156 6.0 11.0 0.00 0.00 0.00 32 1013.4
20210926231531 85 133 4.0 12.0 0.00 0.00 0.00 32 1013.3
20210926231021 85 156 8.0 12.0 0.00 0.00 0.00 32 1013.4
20210926230556 85 360 5.0 11.0 0.00 0.00 0.00 31 1013.4
20210926230022 85 360 5.0 15.0 0.00 0.00 0.00 31 1013.4
20210926225542 85 158 8.0 14.0 0.00 0.00 0.00 30 1013.3
20210926225019 85 150 7.0 14.0 0.00 0.00 0.00 30 1013.3
20210926224524 85 184 4.0 12.0 0.00 0.00 0.00 30 1013.4
20210926224019 85 124 7.0 12.0 0.00 0.00 0.00 31 1013.5
20210926223527 85 129 5.0 12.0 0.00 0.00 0.00 30 1013.4
20210926223043 85 116 5.0 11.0 0.00 0.00 0.00 31 1013.3
20210926222517 85 133 6.0 12.0 0.00 0.00 0.00 31 1013.4
20210926222017 85 46 6.0 14.0 0.00 0.00 0.00 31 1013.4
20210926221549 85 132 5.0 14.0 0.00 0.00 0.00 30 1013.3
20210926221021 86 126 4.0 12.0 0.00 0.00 0.00 31 1013.4
20210926220517 85 161 7.0 13.0 0.00 0.00 0.00 31 1013.5
20210926220019 85 271 8.0 13.0 0.00 0.00 0.00 32 1013.4
20210926215544 86 157 4.0 12.0 0.00 0.00 0.00 32 1013.6
20210926215016 85 146 6.0 12.0 0.00 0.00 0.00 30 1013.4
20210926214528 85 173 4.0 8.0 0.00 0.00 0.00 32 1013.5
20210926214036 84 98 0.0 11.0 0.00 0.00 0.00 33 1013.5
20210926213516 85 159 6.0 15.0 0.00 0.00 0.00 34 1013.5
20210926213019 85 153 7.0 17.0 0.00 0.00 0.00 32 1013.6
20210926212019 86 150 3.0 9.0 0.00 0.00 0.00 33 1013.7
20210926211514 86 154 2.0 7.0 0.00 0.00 0.00 34 1013.7
20210926211017 86 349 2.0 17.0 0.00 0.00 0.00 33 1013.8
20210926210513 84 123 1.0 17.0 0.00 0.00 0.00 34 1013.8
20210926210016 85 105 6.0 10.0 0.00 0.00 0.00 34 1013.9
20210926205523 85 142 1.0 9.0 0.00 0.00 0.00 34 1014.0
20210926205008 84 90 5.0 11.0 0.00 0.00 0.00 34 1014.0
20210926204520 84 68 4.0 11.0 0.00 0.00 0.00 34 1014.1
20210926204015 84 124 2.0 12.0 0.00 0.00 0.00 34 1014.2
20210926203507 84 155 5.0 12.0 0.00 0.00 0.00 33 1014.2
20210926203007 84 130 4.0 11.0 0.00 0.00 0.00 34 1014.3
20210926202507 84 127 3.0 13.0 0.00 0.00 0.00 32 1014.4
20210926202004 83 130 8.0 13.0 0.00 0.00 0.00 34 1014.5
20210926201503 83 136 3.0 9.0 0.00 0.00 0.00 36 1014.5
20210926201006 83 137 1.0 13.0 0.00 0.00 0.00 36 1014.5
20210926200501 83 136 8.0 13.0 0.00 0.00 0.00 37 1014.8
20210926200220 83 93 2.0 12.0 0.00 0.00 0.00 36 1014.9
20210926195600 83 128 4.0 12.0 0.00 0.00 0.00 36 1015.1
20210926195059 83 151 3.0 12.0 0.00 0.00 0.00 36 1015.2
20210926194622 83 159 4.0 11.0 0.00 0.00 0.00 35 1015.2
20210926194103 83 121 6.0 11.0 0.00 0.00 0.00 36 1015.3
20210926193607 82 142 1.0 14.0 0.00 0.00 0.00 36 1015.3
20210926193104 82 360 3.0 14.0 0.00 0.00 0.00 37 1015.5
20210926192554 83 360 6.0 12.0 0.00 0.00 0.00 37 1015.5
20210926192053 83 360 3.0 14.0 0.00 0.00 0.00 39 1015.7
20210926191657 83 360 3.0 14.0 0.00 0.00 0.00 38 1015.7
20210926191118 83 360 3.0 11.0 0.00 0.00 0.00 38 1015.8
20210926190550 83 360 7.0 11.0 0.00 0.00 0.00 37 1015.9
20210926190135 83 360 3.0 10.0 0.00 0.00 0.00 40 1016.1
20210926185548 82 150 2.0 10.0 0.00 0.00 0.00 40 1016.2
20210926185047 83 152 4.0 9.0 0.00 0.00 0.00 38 1016.2
20210926184623 82 360 3.0 6.0 0.00 0.00 0.00 44 1016.2
20210926184045 82 360 2.0 9.0 0.00 0.00 0.00 42 1016.4
20210926183544 82 105 3.0 9.0 0.00 0.00 0.00 42 1016.5